一网星座-0690 (ONEWEB-0690)

导读

ONEWEB-0690是英国OneWeb公司的低轨宽带互联网卫星,于2024年10月20日发射入轨,是OneWeb全球卫星互联网星座的组成部分。该卫星运行在距地面约1200公里的近地轨道,采用Ku波段通信,单颗质量约175-200kg,依托相控阵天线技术,可向地面用户提供最高50Mbps的互联网接入服务,助力OneWeb实现全球覆盖的宽带通信网络布局。

Basic Information
目录编号:
61598
目录名称:
ONEWEB-0690
国际标识:
2024-188E
轨道中心:
EARTH
卫星名称:
一网星座-0690
卫星全名:
一网星座-0690 (ONEWEB-0690)
卫星状态:
在轨 (已飞行602 天)
发射日期:
2024-10-20 UTC
国别 :
英国 (GB)
星等 :
--
Orbit Information
数据来源 国际轨道数据 AOE轨道数据
星历时间 2026-06-14T20:44:01+0800
3小时前
查看轨道信息
2026-06-14T09:00:00+0800
15小时前
查看轨道信息
半长轴 7595.832km 7595.833km
偏心率 0.0001286 0.0001141
轨道倾角 87.890° 87.890°
近地点辐角 70.569° 67.805°
升交点赤经 21.592° 21.689°
平近点角 289.558° 145.513°
近地点 1216.718km 1216.829km
远地点 1218.672km 1218.563km
周期 109.805分钟 109.805分钟
每日圈数 13.114138 13.114136
Detailed Information
卫星平台:
0690
平衡模式:
三轴稳定
覆盖范围:
全球
运营商:
一网卫星公司
运营商所在国:
英国
制造商(研发单位):
空客防务与航天公司
制造商所在国:
法国大都会
使用方式:
暂无
Satellite Introduction
OneWeb 计划是一项全球卫星互联网项目,旨在通过发射低轨道卫星,为全球偏远和无法接入互联网的地区提供高速网络连接。OneWeb 的目标是打造一个由数百颗卫星组成的网络,帮助缩小全球数字鸿沟,推动教育、医疗和经济发展。
2D Orbit Map
3D Orbit Map
Orbit Altitude Analysis Chart
Orbit Inclination Analysis Chart
Orbit Comprehensive Analysis Chart
View Comprehensive Chart